FW0472 Weather Reports


Display with metric or nautical units.
time (UTC)temp
F
wind
direction
speed
MPH
gust
MPH
rain 1hr
in
rain 24hr
in
rain mn
in
humidity
%
barometer
mb
20260906044438 59 335 0.0 0.0 0.00 0.02 0.02 99 1041.0
20260906043933 59 340 0.0 0.0 0.00 0.02 0.02 99 1040.8
20260906043429 59 348 0.0 0.0 0.07 0.02 0.02 99 1041.0
20260906042925 59 347 0.0 0.0 0.07 0.02 0.02 99 1040.9
20260906042424 59 345 0.0 0.0 0.00 0.01 0.01 99 1041.0
20260906041919 59 343 0.0 0.0 0.05 0.01 0.01 99 1040.9
20260906041414 59 340 0.0 0.0 0.05 0.01 0.01 99 1041.2
20260906040909 59 340 0.0 0.0 0.00 0.00 0.00 99 1041.2
20260906040404 59 341 0.0 0.0 0.00 0.00 0.00 99 1041.1
20260906035859 59 340 0.0 0.0 0.00 0.09 0.09 99 1041.0
20260906035354 59 339 0.0 0.0 0.00 0.09 0.09 99 1041.0
20260906034849 59 3 0.0 0.0 0.00 0.09 0.09 99 1040.9
20260906034344 59 333 0.0 0.0 0.00 0.09 0.09 99 1041.0
20260906033840 59 335 0.0 0.0 0.00 0.09 0.09 99 1040.9
20260906033339 60 317 0.0 0.0 0.00 0.09 0.09 99 1040.8
20260906032836 60 317 0.0 0.0 0.00 0.09 0.09 99 1040.8
20260906032331 60 317 0.0 0.0 0.00 0.09 0.09 99 1040.8
20260906031826 60 317 0.0 0.0 0.07 0.09 0.09 99 1040.7
20260906031322 60 317 0.0 0.0 0.07 0.09 0.09 99 1040.7
20260906030821 60 317 0.0 0.0 0.00 0.08 0.08 99 1040.7
20260906030316 60 318 0.0 0.0 0.00 0.08 0.08 99 1040.7
20260906025811 60 317 0.0 0.0 0.00 0.08 0.08 99 1040.8
20260906025306 60 318 0.0 0.0 0.00 0.08 0.08 99 1040.8
20260906024804 60 317 0.0 0.0 0.00 0.08 0.08 99 1040.8
20260906024303 60 317 0.0 0.0 0.00 0.08 0.08 99 1040.9
20260906023759 60 317 0.0 0.0 0.05 0.08 0.08 99 1040.7
20260906023254 60 317 0.0 0.0 0.05 0.08 0.08 99 1040.7
20260906022750 60 317 0.0 0.0 0.00 0.07 0.07 99 1040.7
20260906022245 60 317 0.0 0.0 0.00 0.07 0.07 99 1040.8
20260906021741 60 317 0.0 0.0 0.00 0.07 0.07 99 1040.8
20260906021234 60 317 0.0 0.0 0.00 0.07 0.07 99 1040.8
20260906020729 60 317 0.0 0.0 0.00 0.07 0.07 99 1040.8
20260906020224 60 317 0.0 0.0 0.00 0.07 0.07 99 1040.8
20260906015724 60 317 0.0 0.0 0.00 0.07 0.07 99 1040.6
20260906015222 60 317 0.0 0.0 0.00 0.07 0.07 99 1040.6
20260906014716 60 317 0.0 0.0 0.00 0.07 0.07 99 1040.6
20260906014213 60 317 0.0 0.0 0.00 0.07 0.07 99 1040.4
20260906013708 60 317 0.0 0.0 0.00 0.07 0.07 99 1040.9
20260906013208 60 317 0.0 0.0 0.00 0.07 0.07 99 1040.8
20260906012704 60 317 0.0 0.0 0.00 0.07 0.07 99 1040.7
20260906012158 60 317 0.0 0.0 0.00 0.07 0.07 99 1040.8
20260906011654 61 317 0.0 0.0 0.00 0.07 0.07 99 1040.8
20260906011148 60 323 0.0 0.0 0.07 0.07 0.07 99 1040.8
20260906010644 60 317 0.0 1.0 0.07 0.07 0.07 99 1040.4
20260906010140 61 312 0.0 1.0 0.00 0.06 0.06 99 1040.8
20260906005639 60 336 0.0 0.0 0.00 0.06 0.06 99 1040.7
20260906005138 60 339 0.0 0.0 0.00 0.06 0.06 99 1040.6
20260906004638 60 332 0.0 0.0 0.05 0.06 0.06 98 1040.3
20260906004133 60 312 0.0 0.0 0.19 0.06 0.06 98 1040.4
20260906003628 61 319 0.0 0.0 0.14 0.05 0.05 99 1040.4
20260906003124 61 344 0.0 0.0 0.00 0.03 0.03 98 1040.4
20260906002618 62 345 0.0 0.0 0.05 0.03 0.03 98 1040.4
20260906002113 62 352 0.0 0.0 0.05 0.03 0.03 98 1040.2
20260906001608 62 343 0.0 0.0 0.00 0.02 0.02 98 1040.2
20260906001103 62 343 0.0 0.0 0.00 0.02 0.02 98 1040.3
20260906000559 62 358 0.0 0.0 0.07 0.02 0.02 97 1040.3
20260906000054 62 331 0.0 0.0 0.07 0.02 0.02 97 1040.0
20260905235553 62 331 0.0 0.0 0.00 0.01 0.01 97 1039.8
20260905235048 62 331 0.0 0.0 0.00 0.01 0.01 97 1040.1
20260905234544 62 332 0.0 0.0 0.00 0.01 0.01 97 1039.9
20260905234039 62 317 0.0 0.0 0.00 0.01 0.01 97 1039.9
20260905233538 62 324 0.0 0.0 0.00 0.01 0.01 97 1039.7
20260905233033 62 341 0.0 0.0 0.00 0.01 0.01 97 1039.9
20260905232528 62 352 0.0 0.0 0.00 0.01 0.01 96 1039.8
20260905232024 62 348 0.0 0.0 0.05 0.01 0.01 96 1039.7
20260905231519 62 23 0.0 0.0 0.05 0.01 0.01 95 1039.8
20260905231015 63 353 0.0 0.0 0.00 0.00 0.00 95 1039.7
20260905230514 63 350 0.0 0.0 0.00 0.00 0.00 94 1039.7
20260905230013 64 28 0.0 1.0 0.00 0.00 0.00 93 1039.7
20260905225508 64 346 0.0 0.0 0.00 0.00 0.00 90 1039.8
20260905225003 65 344 1.0 1.0 0.00 0.00 0.00 87 1039.6
20260905224458 65 64 1.0 3.0 0.00 0.00 0.00 86 1039.3
20260905223957 66 345 0.0 1.0 0.00 0.00 0.00 85 1039.5
20260905223455 66 344 0.0 1.0 0.00 0.00 0.00 84 1039.2
20260905222950 67 7 1.0 1.0 0.00 0.00 0.00 82 1039.2
20260905222449 67 309 1.0 1.0 0.00 0.00 0.00 80 1039.2
20260905221945 68 43 2.0 2.0 0.00 0.00 0.00 79 1038.9
20260905221441 68 348 0.0 1.0 0.00 0.00 0.00 78 1038.8
20260905220937 68 355 0.0 0.0 0.00 0.00 0.00 78 1038.8
20260905220433 69 343 0.0 0.0 0.00 0.00 0.00 79 1038.8
20260905215932 69 350 0.0 0.0 0.00 0.00 0.00 77 1038.7
20260905215428 69 328 0.0 0.0 0.00 0.00 0.00 75 1038.5
20260905214924 69 341 0.0 0.0 0.00 0.00 0.00 75 1038.6
20260905214419 69 349 0.0 0.0 0.00 0.00 0.00 78 1038.6
20260905213914 69 356 0.0 0.0 0.00 0.00 0.00 77 1038.7
20260905213410 70 345 0.0 0.0 0.00 0.00 0.00 76 1038.6
20260905212905 71 347 0.0 0.0 0.00 0.00 0.00 74 1038.4
20260905212400 73 332 0.0 0.0 0.00 0.00 0.00 71 1038.4
20260905211854 73 340 0.0 0.0 0.00 0.00 0.00 68 1038.5
20260905211349 73 354 0.0 0.0 0.00 0.00 0.00 67 1038.4
20260905210846 75 16 0.0 1.0 0.00 0.00 0.00 64 1038.1
20260905210345 74 313 0.0 0.0 0.00 0.00 0.00 68 1038.2
20260905205844 73 355 1.0 1.0 0.00 0.00 0.00 68 1038.1
20260905205339 75 7 0.0 1.0 0.00 0.00 0.00 64 1038.1
20260905204838 74 346 0.0 0.0 0.00 0.00 0.00 69 1038.0
20260905204335 73 312 0.0 1.0 0.00 0.00 0.00 67 1037.8
20260905203833 72 355 0.0 1.0 0.00 0.00 0.00 72 1038.1
20260905203329 72 346 0.0 0.0 0.00 0.00 0.00 71 1038.0
20260905202825 71 341 0.0 1.0 0.00 0.00 0.00 72 1038.1
20260905202320 71 336 0.0 0.0 0.00 0.00 0.00 75 1037.9
20260905201815 71 330 0.0 0.0 0.00 0.00 0.00 73 1038.0
20260905201310 70 344 0.0 0.0 0.00 0.00 0.00 73 1037.9
20260905200805 71 314 0.0 0.0 0.00 0.00 0.00 73 1038.1
20260905200301 70 321 0.0 0.0 0.00 0.00 0.00 72 1038.0
20260905195759 70 339 0.0 0.0 0.00 0.00 0.00 75 1038.1
20260905195254 70 352 0.0 1.0 0.00 0.00 0.00 73 1038.0
20260905194749 70 345 0.0 0.0 0.00 0.00 0.00 74 1038.0
20260905194249 70 28 1.0 1.0 0.00 0.00 0.00 72 1038.1
20260905193748 70 72 1.0 1.0 0.00 0.00 0.00 72 1038.0
20260905193244 70 330 0.0 0.0 0.00 0.00 0.00 73 1038.0
20260905192739 70 341 0.0 0.0 0.00 0.00 0.00 74 1038.0
20260905192235 70 332 0.0 0.0 0.00 0.00 0.00 75 1038.2
20260905191734 70 339 0.0 0.0 0.00 0.00 0.00 74 1038.0
20260905191233 69 325 0.0 0.0 0.00 0.00 0.00 75 1038.0
20260905190732 69 339 0.0 0.0 0.00 0.00 0.00 76 1038.1
20260905190231 70 5 0.0 0.0 0.00 0.00 0.00 75 1038.2
20260905185730 70 346 0.0 0.0 0.00 0.00 0.00 75 1038.1
20260905185225 69 305 0.0 0.0 0.00 0.00 0.00 76 1037.9
20260905184725 69 351 0.0 0.0 0.00 0.00 0.00 76 1037.8
20260905184224 69 336 0.0 0.0 0.00 0.00 0.00 75 1037.9
20260905183723 69 32 1.0 2.0 0.00 0.00 0.00 76 1037.9
20260905183219 69 22 2.0 2.0 0.00 0.00 0.00 76 1037.8
20260905182713 69 34 1.0 1.0 0.00 0.00 0.00 76 1037.7
20260905182213 69 328 0.0 0.0 0.00 0.00 0.00 76 1037.6
20260905181708 69 352 0.0 0.0 0.00 0.00 0.00 77 1038.0
20260905181207 69 356 0.0 0.0 0.00 0.00 0.00 76 1038.0
20260905180702 69 47 0.0 1.0 0.00 0.00 0.00 75 1038.0
20260905180157 69 68 1.0 2.0 0.00 0.00 0.00 75 1038.0
20260905175656 68 321 0.0 0.0 0.00 0.00 0.00 75 1038.0
20260905175152 68 343 0.0 0.0 0.00 0.00 0.00 76 1038.0
20260905174647 68 343 0.0 1.0 0.00 0.00 0.00 76 1038.1
20260905174143 68 357 0.0 0.0 0.00 0.00 0.00 78 1038.0
20260905173638 68 325 0.0 0.0 0.00 0.00 0.00 78 1038.1
20260905173134 68 344 0.0 0.0 0.00 0.00 0.00 78 1038.1
20260905172633 68 336 0.0 0.0 0.00 0.00 0.00 77 1038.0
20260905172128 68 343 0.0 0.0 0.00 0.00 0.00 77 1037.9
20260905171624 69 336 0.0 0.0 0.00 0.00 0.00 74 1037.9
20260905171120 68 336 0.0 0.0 0.00 0.00 0.00 75 1038.1
20260905170616 69 61 0.0 1.0 0.00 0.00 0.00 74 1038.1
20260905170111 68 292 0.0 1.0 0.00 0.00 0.00 75 1038.0
20260905165606 68 330 1.0 2.0 0.00 0.00 0.00 75 1038.1
20260905165101 68 354 0.0 0.0 0.00 0.00 0.00 75 1038.2
20260905164555 68 264 1.0 2.0 0.00 0.00 0.00 75 1038.0
20260905164050 69 343 0.0 0.0 0.00 0.00 0.00 76 1038.1
20260905163546 68 350 0.0 0.0 0.00 0.00 0.00 75 1038.1
20260905163042 68 322 0.0 0.0 0.00 0.00 0.00 75 1038.1
20260905162538 69 344 0.0 0.0 0.00 0.00 0.00 75 1038.1
20260905162037 69 332 0.0 0.0 0.00 0.00 0.00 75 1037.9
20260905161532 69 357 0.0 1.0 0.00 0.00 0.00 73 1038.0
20260905161030 69 15 0.0 1.0 0.00 0.00 0.00 75 1038.0
20260905160529 69 315 0.0 0.0 0.00 0.00 0.00 74 1038.1
20260905160028 69 4 0.0 0.0 0.00 0.00 0.00 75 1038.1
20260905155528 68 2 0.0 0.0 0.00 0.00 0.00 75 1038.1
20260905155026 68 319 0.0 0.0 0.00 0.00 0.00 76 1038.3
20260905154522 68 339 0.0 0.0 0.00 0.00 0.00 80 1038.2
20260905154018 68 348 0.0 0.0 0.00 0.00 0.00 79 1038.1
20260905153514 68 322 0.0 0.0 0.00 0.00 0.00 81 1038.1
20260905153014 68 314 0.0 0.0 0.00 0.00 0.00 81 1038.0
20260905152514 68 326 0.0 0.0 0.00 0.00 0.00 81 1038.0
20260905152009 68 331 0.0 0.0 0.00 0.00 0.00 80 1038.0
20260905151504 68 8 1.0 2.0 0.00 0.00 0.00 80 1038.1
20260905150959 68 327 0.0 0.0 0.00 0.00 0.00 80 1037.9
20260905150453 69 327 0.0 0.0 0.00 0.00 0.00 79 1038.0
20260905145950 70 344 0.0 0.0 0.00 0.00 0.00 77 1037.9
20260905145445 69 326 0.0 1.0 0.00 0.00 0.00 76 1037.8
20260905144944 69 326 1.0 1.0 0.00 0.00 0.00 77 1037.9
20260905144440 68 344 0.0 0.0 0.00 0.00 0.00 79 1037.8
20260905143939 68 352 0.0 1.0 0.00 0.00 0.00 77 1037.9
20260905143432 67 338 0.0 1.0 0.00 0.00 0.00 79 1038.1
20260905142927 67 322 0.0 1.0 0.00 0.00 0.00 80 1037.8
20260905142426 67 341 0.0 0.0 0.00 0.00 0.00 80 1038.0
20260905141922 67 349 0.0 0.0 0.00 0.00 0.00 80 1037.9
20260905141416 67 7 0.0 1.0 0.00 0.00 0.00 81 1038.0
20260905140913 66 330 0.0 0.0 0.00 0.00 0.00 82 1037.7
20260905140408 66 332 0.0 0.0 0.00 0.00 0.00 84 1037.9
20260905135906 66 58 0.0 0.0 0.00 0.00 0.00 84 1037.9
20260905135402 66 328 0.0 0.0 0.00 0.00 0.00 86 1037.8
20260905134858 66 346 0.0 0.0 0.00 0.00 0.00 88 1037.9
20260905134356 66 325 0.0 0.0 0.00 0.00 0.00 85 1037.9
20260905133850 65 323 0.0 0.0 0.00 0.00 0.00 86 1037.7
20260905133346 64 331 0.0 0.0 0.00 0.00 0.00 89 1037.6
20260905132845 64 345 0.0 0.0 0.00 0.00 0.00 89 1037.5
20260905132341 64 315 0.0 0.0 0.00 0.00 0.00 89 1037.5
20260905131840 64 298 0.0 0.0 0.00 0.00 0.00 90 1037.4
20260905131336 63 317 0.0 0.0 0.00 0.00 0.00 91 1037.6
20260905130831 63 306 0.0 0.0 0.00 0.00 0.00 91 1037.3
20260905130330 62 323 0.0 0.0 0.00 0.00 0.00 93 1037.5
20260905125825 62 331 0.0 0.0 0.00 0.00 0.00 93 1037.4
20260905125320 62 321 0.0 0.0 0.00 0.00 0.00 94 1037.5
20260905124816 61 322 0.0 0.0 0.00 0.00 0.00 95 1037.6
20260905124313 60 321 0.0 0.0 0.00 0.00 0.00 96 1037.8
20260905123807 60 325 0.0 0.0 0.00 0.00 0.00 96 1037.6
20260905123304 60 359 0.0 0.0 0.00 0.00 0.00 97 1037.4
20260905122804 60 358 0.0 0.0 0.00 0.00 0.00 97 1037.5
20260905122306 60 359 0.0 0.0 0.00 0.00 0.00 97 1037.5
20260905121759 60 358 0.0 0.0 0.00 0.00 0.00 97 1037.5
20260905121255 60 358 0.0 0.0 0.00 0.00 0.00 97 1037.4
20260905120753 59 356 0.0 0.0 0.00 0.00 0.00 97 1037.5
20260905120248 59 356 0.0 0.0 0.00 0.00 0.00 97 1037.5
20260905115743 59 355 0.0 0.0 0.00 0.00 0.00 98 1037.6
20260905115243 59 356 0.0 0.0 0.00 0.00 0.00 98 1037.5
20260905114742 59 356 0.0 0.0 0.00 0.00 0.00 98 1037.4
20260905114241 59 356 0.0 0.0 0.00 0.00 0.00 98 1037.3
20260905113740 59 355 0.0 0.0 0.00 0.00 0.00 98 1037.2
20260905113236 59 355 0.0 0.0 0.00 0.00 0.00 98 1037.3
20260905112731 59 356 0.0 0.0 0.00 0.00 0.00 98 1037.1
20260905112226 59 356 0.0 0.0 0.00 0.00 0.00 98 1037.0
20260905111721 59 356 0.0 0.0 0.00 0.00 0.00 98 1037.0
20260905111215 59 355 0.0 0.0 0.00 0.00 0.00 98 1037.1
20260905110714 59 354 0.0 0.0 0.00 0.00 0.00 98 1037.0
20260905110209 59 354 0.0 0.0 0.00 0.00 0.00 98 1037.0
20260905105705 59 355 0.0 0.0 0.00 0.00 0.00 98 1037.0
20260905105203 59 354 0.0 0.0 0.00 0.00 0.00 98 1037.1
20260905104658 58 354 0.0 0.0 0.00 0.00 0.00 98 1036.9
20260905104154 58 354 0.0 0.0 0.00 0.00 0.00 98 1036.8
20260905103649 58 354 0.0 0.0 0.00 0.00 0.00 98 1037.0
20260905103145 58 354 0.0 0.0 0.00 0.00 0.00 98 1036.9
20260905102641 58 354 0.0 0.0 0.00 0.00 0.00 98 1037.0
20260905102137 58 354 0.0 0.0 0.00 0.00 0.00 98 1036.8
20260905101636 58 354 0.0 0.0 0.00 0.00 0.00 98 1036.8
20260905101134 58 354 0.0 0.0 0.00 0.00 0.00 98 1036.8
20260905100630 58 355 0.0 0.0 0.00 0.00 0.00 98 1036.7
20260905100125 58 354 0.0 0.0 0.00 0.00 0.00 98 1036.6
20260905095619 58 354 0.0 0.0 0.00 0.00 0.00 98 1036.7
20260905095114 58 354 0.0 0.0 0.00 0.00 0.00 98 1036.6
20260905094609 58 354 0.0 0.0 0.00 0.00 0.00 98 1036.7
20260905094109 58 354 0.0 0.0 0.00 0.00 0.00 98 1036.5
20260905093609 58 354 0.0 0.0 0.00 0.00 0.00 98 1036.8
20260905093105 58 354 0.0 0.0 0.00 0.00 0.00 98 1036.7
20260905092604 58 354 0.0 0.0 0.00 0.00 0.00 98 1036.6
20260905092101 58 355 0.0 0.0 0.00 0.00 0.00 98 1036.6
20260905091600 57 354 0.0 0.0 0.00 0.00 0.00 98 1036.6
20260905091055 57 354 0.0 0.0 0.00 0.00 0.00 98 1036.6
20260905090554 57 354 0.0 0.0 0.00 0.00 0.00 98 1036.7
20260905090050 57 354 0.0 0.0 0.00 0.00 0.00 98 1036.6
20260905085548 57 354 0.0 0.0 0.00 0.00 0.00 98 1036.5
20260905085044 57 354 0.0 0.0 0.00 0.00 0.00 98 1036.6
20260905084543 58 354 0.0 0.0 0.00 0.00 0.00 98 1036.5
20260905084039 58 354 0.0 0.0 0.00 0.00 0.00 98 1036.9
20260905083533 58 357 0.0 0.0 0.00 0.00 0.00 98 1036.6
20260905083030 58 352 0.0 0.0 0.00 0.00 0.00 98 1036.5
20260905082520 58 352 0.0 0.0 0.00 0.00 0.00 98 1036.6
20260905082015 58 352 0.0 0.0 0.00 0.00 0.00 98 1036.5
20260905081515 58 352 0.0 0.0 0.00 0.00 0.00 98 1036.6
20260905081015 58 352 0.0 0.0 0.00 0.00 0.00 98 1036.3
20260905080509 58 352 0.0 0.0 0.00 0.00 0.00 98 1036.5
20260905080004 58 352 0.0 0.0 0.00 0.00 0.00 98 1036.6
20260905075457 58 354 0.0 0.0 0.00 0.00 0.00 98 1036.6
20260905074956 58 354 0.0 0.0 0.00 0.00 0.00 98 1036.6
20260905074452 58 355 0.0 0.0 0.00 0.00 0.00 98 1036.7
20260905073947 59 0 0.0 0.0 0.00 0.00 0.00 98 1036.8
20260905073442 59 338 0.0 0.0 0.00 0.00 0.00 97 1036.7
20260905072938 59 351 0.0 0.0 0.00 0.00 0.00 97 1036.6
20260905072432 59 356 0.0 0.0 0.00 0.00 0.00 97 1036.7
20260905071928 59 318 0.0 0.0 0.00 0.00 0.00 97 1036.6
20260905071426 59 340 0.0 0.0 0.00 0.00 0.00 97 1036.8
20260905070924 59 337 0.0 0.0 0.00 0.00 0.00 97 1036.7
20260905070421 59 340 0.0 0.0 0.00 0.00 0.00 97 1036.6
20260905065920 59 323 0.0 0.0 0.00 0.00 0.00 97 1036.8
20260905065419 59 328 0.0 0.0 0.00 0.00 0.00 97 1037.0
20260905064914 59 328 0.0 0.0 0.00 0.00 0.00 96 1036.9
20260905064409 59 329 0.0 0.0 0.00 0.00 0.00 96 1037.2
20260905063908 60 329 0.0 0.0 0.00 0.00 0.00 96 1036.9
20260905063404 60 331 0.0 0.0 0.00 0.00 0.00 96 1037.1
20260905062900 60 344 0.0 0.0 0.00 0.00 0.00 96 1036.9
20260905062354 60 326 0.0 0.0 0.00 0.00 0.00 96 1037.1
20260905061849 60 325 0.0 0.0 0.00 0.00 0.00 96 1037.0
20260905061343 60 326 0.0 0.0 0.00 0.00 0.00 96 1037.3
20260905060838 60 0 0.0 0.0 0.00 0.00 0.00 96 1037.3
20260905060335 60 352 0.0 0.0 0.00 0.00 0.00 96 1037.3
20260905055833 60 330 0.0 0.0 0.00 0.00 0.00 96 1037.3
20260905055328 60 315 0.0 0.0 0.00 0.00 0.00 96 1037.2
20260905054828 60 322 0.0 0.0 0.00 0.00 0.00 95 1037.0
20260905054325 60 15 0.0 0.0 0.00 0.00 0.00 95 1037.0
20260905053824 60 338 0.0 0.0 0.00 0.00 0.00 95 1036.6
20260905053319 61 337 0.0 0.0 0.00 0.00 0.00 95 1036.6
20260905052814 61 337 0.0 0.0 0.00 0.00 0.00 94 1036.8
20260905052313 61 337 0.0 0.0 0.00 0.00 0.00 94 1036.9
20260905051808 61 337 0.0 0.0 0.00 0.00 0.00 94 1036.9
20260905051304 61 338 0.0 0.0 0.00 0.00 0.00 94 1036.9
20260905050801 61 334 0.0 0.0 0.00 0.00 0.00 94 1037.0
20260905050257 61 333 0.0 0.0 0.00 0.00 0.00 94 1037.1
20260905045751 62 333 0.0 0.0 0.00 0.00 0.00 94 1037.0
20260905045247 62 333 0.0 0.0 0.00 0.00 0.00 94 1037.3
20260905044742 62 341 0.0 0.0 0.00 0.00 0.00 93 1037.2